User: anonymous   Login
Location: Ciserano
(45.5833°N, 9.6000°E)
Time: 17:38:43
(UTC+00:00)
Language:

deb Agena D - Orbit

View from above orbital plane
View from above orbital plane
View from above satellite
View from above satellite

Ground track
Ground track

The orbit data is extracted from the following two-line orbital elements,

1 04751U 70025CZ  21293.78097304  .00000446  00000-0  45937-3 0  9991
2 04751 100.1118 233.0707 0003695 124.9539 235.1959 13.82351268570206
Epoch (UTC): 20 October 2021 18:44:36
Eccentricity: 0.0003695
inclination: 100.1118°
perigee height: 953 km
apogee height: 958 km
right ascension of ascending node: 233.0707°
argument of perigee: 124.9539°
revolutions per day: 13.82351268
mean anomaly at epoch: 235.1959°
orbit number at epoch: 57020

The dashed part of the orbit path shows where the satellite is in the earth's shadow,  

DLR